DW6193 Weather Reports


Display with metric or nautical units.
time (UTC)temp
F
wind
direction
speed
MPH
gust
MPH
rain 1hr
in
rain 24hr
in
rain mn
in
humidity
%
barometer
mb
20260901075026 63 263 10.0 16.0 0.00 0.00 0.00 1011.4
20260901074633 64 246 8.0 17.0 0.00 0.00 0.00 1011.4
20260901074027 64 288 9.0 16.0 0.00 0.00 0.00 1011.3
20260901073527 65 290 9.0 16.0 0.00 0.00 0.00 1011.3
20260901073045 65 281 10.0 15.0 0.00 0.00 0.00 1011.1
20260901072528 65 272 9.0 16.0 0.00 0.00 0.00 1011.1
20260901072028 65 257 9.0 18.0 0.00 0.00 0.00 1011.1
20260901071553 65 300 10.0 18.0 0.00 0.00 0.00 1011.0
20260901071031 66 278 10.0 17.0 0.00 0.00 0.00 1010.9
20260901070527 66 240 10.0 18.0 0.00 0.00 0.00 1011.0
20260901065529 66 268 11.0 19.0 0.00 0.00 0.00 1010.7
20260901065029 66 272 10.0 21.0 0.00 0.00 0.00 1010.7
20260901064545 66 272 11.0 21.0 0.00 0.00 0.00 1010.6
20260901064029 67 247 12.0 21.0 0.00 0.00 0.00 1010.4
20260901063540 67 275 8.0 19.0 0.00 0.00 0.00 1010.6
20260901063058 67 224 11.0 21.0 0.00 0.00 0.00 1010.4
20260901062524 67 234 12.0 21.0 0.00 0.00 0.00 1010.3
20260901062027 67 295 10.0 21.0 0.00 0.00 0.00 1010.4
20260901061604 67 245 12.0 21.0 0.00 0.00 0.00 1010.2
20260901061024 68 240 12.0 20.0 0.00 0.00 0.00 1010.2
20260901060531 68 198 11.0 18.0 0.00 0.00 0.00 1010.1
20260901060056 69 268 10.0 17.0 0.00 0.00 0.00 1010.0
20260901055527 69 200 9.0 19.0 0.00 0.00 0.00 1010.0
20260901055027 69 279 10.0 21.0 0.00 0.00 0.00 1010.0
20260901054553 69 275 12.0 20.0 0.00 0.00 0.00 1009.9
20260901054025 69 272 12.0 18.0 0.00 0.00 0.00 1009.9
20260901053526 70 255 11.0 18.0 0.00 0.00 0.00 1010.0
20260901053055 71 282 8.0 17.0 0.00 0.00 0.00 1009.8
20260901052527 71 286 3.0 7.0 0.00 0.00 0.00 1009.9
20260901052030 74 55 2.0 9.0 0.00 0.00 0.00 1009.8
20260901051545 75 300 5.0 9.0 0.00 0.00 0.00 1009.8
20260901051029 75 292 4.0 8.0 0.00 0.00 0.00 1009.7
20260901050526 75 288 5.0 8.0 0.00 0.00 0.00 1009.7
20260901050052 75 285 5.0 8.0 0.00 0.00 0.00 1009.7
20260901045528 74 275 5.0 7.0 0.00 0.00 0.00 1009.7
20260901045026 73 272 4.0 6.0 0.00 0.00 0.00 1009.6
20260901044609 73 268 2.0 5.0 0.00 0.00 0.00 1009.7
20260901044025 74 329 1.0 5.0 0.00 0.00 0.00 1009.6
20260901043528 74 236 1.0 5.0 0.00 0.00 0.00 1009.7
20260901043050 74 268 2.0 7.0 0.00 0.00 0.00 1009.7
20260901042527 74 260 2.0 7.0 0.00 0.00 0.00 1009.6
20260901042027 75 268 2.0 5.0 0.00 0.00 0.00 1009.6
20260901041547 75 278 0.0 3.0 0.00 0.00 0.00 1009.4
20260901041028 76 0 1.0 3.0 0.00 0.00 0.00 1009.4
20260901040524 76 268 0.0 4.0 0.00 0.00 0.00 1009.4
20260901035525 76 255 1.0 6.0 0.00 0.00 0.00 1009.2
20260901035024 76 322 1.0 9.0 0.00 0.00 0.00 1009.3
20260901034551 76 274 3.0 9.0 0.00 0.00 0.00 1009.1
20260901034026 76 311 3.0 7.0 0.00 0.00 0.00 1009.2
20260901033524 76 285 3.0 10.0 0.00 0.00 0.00 1009.0
20260901033051 76 252 5.0 11.0 0.00 0.00 0.00 1009.0
20260901032527 76 297 7.0 11.0 0.00 0.00 0.00 1008.9
20260901032028 76 268 7.0 11.0 0.00 0.00 0.00 1008.9
20260901031545 76 254 8.0 11.0 0.00 0.00 0.00 1008.8
20260901031027 76 267 7.0 11.0 0.00 0.00 0.00 1008.8
20260901030525 77 268 7.0 11.0 0.00 0.00 0.00 1008.7
20260901030052 77 273 7.0 12.0 0.00 0.00 0.00 1008.8
20260901025527 77 288 8.0 12.0 0.00 0.00 0.00 1008.7
20260901025025 77 295 8.0 13.0 0.00 0.00 0.00 1008.7
20260901024559 77 288 7.0 13.0 0.00 0.00 0.00 1008.8
20260901024028 78 290 7.0 11.0 0.00 0.00 0.00 1008.8
20260901023526 78 283 7.0 11.0 0.00 0.00 0.00 1008.9
20260901023049 78 285 7.0 11.0 0.00 0.00 0.00 1008.7
20260901022531 79 283 7.0 11.0 0.00 0.00 0.00 1008.8
20260901022027 79 303 7.0 10.0 0.00 0.00 0.00 1008.7
20260901021604 79 301 7.0 10.0 0.00 0.00 0.00 1008.8
20260901021028 79 300 6.0 11.0 0.00 0.00 0.00 1008.7
20260901020527 80 293 6.0 11.0 0.00 0.00 0.00 1008.7
20260901020050 80 297 6.0 10.0 0.00 0.00 0.00 1008.7
20260901015523 81 298 4.0 7.0 0.00 0.00 0.00 1008.7
20260901015025 81 285 3.0 6.0 0.00 0.00 0.00 1008.6
20260901014546 82 281 2.0 4.0 0.00 0.00 0.00 1008.7
20260901014024 84 276 2.0 5.0 0.00 0.00 0.00 1008.6
20260901013527 84 305 1.0 6.0 0.00 0.00 0.00 1008.5
20260901013101 83 295 1.0 5.0 0.00 0.00 0.00 1008.5
20260901012531 84 252 1.0 4.0 0.00 0.00 0.00 1008.5
20260901012029 85 0 1.0 5.0 0.00 0.00 0.00 1008.5
20260901011548 86 268 1.0 5.0 0.00 0.00 0.00 1008.5
20260901011030 87 295 1.0 4.0 0.00 0.00 0.00 1008.5
20260901010525 89 286 1.0 4.0 0.00 0.00 0.00 1008.5
20260901010045 91 355 1.0 4.0 0.00 0.00 0.00 1008.4
20260901005527 89 337 1.0 3.0 0.00 0.00 0.00 1008.5
20260901005027 93 0 0.0 3.0 0.00 0.00 0.00 1008.5
20260901004557 94 311 1.0 4.0 0.00 0.00 0.00 1008.5
20260901004024 90 355 0.0 6.0 0.00 0.00 0.00 1008.6
20260901003524 87 268 1.0 6.0 0.00 0.00 0.00 1008.6
20260901003052 89 0 1.0 6.0 0.00 0.00 0.00 1008.5
20260901002526 89 210 1.0 3.0 0.00 0.00 0.00 1008.5
20260901002027 91 355 1.0 4.0 0.00 0.00 0.00 1008.5
20260901001549 94 0 0.0 4.0 0.00 0.00 0.00 1008.5
20260901001025 98 99 1.0 4.0 0.00 0.00 0.00 1008.6
20260901000527 98 311 1.0 4.0 0.00 0.00 0.00 1008.4
20260901000057 99 254 1.0 3.0 0.00 0.00 0.00 1008.5
20260831235528 100 252 0.0 4.0 0.00 0.00 0.00 1008.6
20260831235028 99 0 0.0 5.0 0.00 0.00 0.00 1008.5
20260831234557 95 355 1.0 5.0 0.00 0.00 0.00 1008.6
20260831234029 95 275 2.0 7.0 0.00 0.00 0.00 1008.6
20260831233529 96 0 2.0 7.0 0.00 0.00 0.00 1008.6
20260831233050 95 319 2.0 6.0 0.00 0.00 0.00 1008.6
20260831232531 95 290 2.0 6.0 0.00 0.00 0.00 1008.7
20260831232029 94 39 2.0 8.0 0.00 0.00 0.00 1008.8
20260831231603 94 105 2.0 8.0 0.00 0.00 0.00 1008.7
20260831231028 93 12 3.0 8.0 0.00 0.00 0.00 1008.5
20260831230530 94 268 2.0 8.0 0.00 0.00 0.00 1008.7
20260831230100 96 355 1.0 13.0 0.00 0.00 0.00 1008.8
20260831225529 92 207 2.0 13.0 0.00 0.00 0.00 1008.6
20260831225027 95 274 2.0 9.0 0.00 0.00 0.00 1008.7
20260831224619 94 69 3.0 9.0 0.00 0.00 0.00 1008.5
20260831224027 96 99 1.0 5.0 0.00 0.00 0.00 1008.9
20260831223528 96 216 1.0 6.0 0.00 0.00 0.00 1008.8
20260831223059 95 114 1.0 10.0 0.00 0.00 0.00 1008.9
20260831222526 93 355 2.0 14.0 0.00 0.00 0.00 1008.9
20260831222029 94 275 3.0 14.0 0.00 0.00 0.00 1008.8
20260831221555 94 101 2.0 10.0 0.00 0.00 0.00 1009.1
20260831221027 90 141 2.0 9.0 0.00 0.00 0.00 1009.2
20260831220529 90 55 2.0 7.0 0.00 0.00 0.00 1009.1
20260831220053 90 337 3.0 8.0 0.00 0.00 0.00 1009.2
20260831215529 89 295 3.0 8.0 0.00 0.00 0.00 1009.2
20260831215028 90 170 2.0 9.0 0.00 0.00 0.00 1009.4
20260831214549 89 268 3.0 10.0 0.00 0.00 0.00 1009.3
20260831214033 89 62 3.0 13.0 0.00 0.00 0.00 1009.3
20260831213528 88 303 4.0 13.0 0.00 0.00 0.00 1009.4
20260831213101 90 66 3.0 17.0 0.00 0.00 0.00 1009.3
20260831212529 88 123 4.0 17.0 0.00 0.00 0.00 1009.3
20260831212031 90 134 5.0 17.0 0.00 0.00 0.00 1009.4
20260831211605 88 141 5.0 17.0 0.00 0.00 0.00 1009.3
20260831211025 87 300 3.0 15.0 0.00 0.00 0.00 1009.3
20260831210529 87 315 4.0 15.0 0.00 0.00 0.00 1009.3
20260831210057 88 277 4.0 14.0 0.00 0.00 0.00 1009.5
20260831205527 87 16 5.0 16.0 0.00 0.00 0.00 1009.5
20260831205027 87 345 4.0 16.0 0.00 0.00 0.00 1009.6
20260831204546 86 162 5.0 17.0 0.00 0.00 0.00 1009.4
20260831204028 85 151 5.0 17.0 0.00 0.00 0.00 1009.5
20260831203525 85 141 5.0 16.0 0.00 0.00 0.00 1009.5
20260831203048 85 277 4.0 25.0 0.00 0.00 0.00 1009.6
20260831202528 85 164 9.0 25.0 0.00 0.00 0.00 1009.4
20260831202026 86 111 5.0 17.0 0.00 0.00 0.00 1009.6
20260831201556 86 324 4.0 19.0 0.00 0.00 0.00 1009.8
20260831201026 86 72 5.0 19.0 0.00 0.00 0.00 1009.9
20260831200526 85 109 5.0 19.0 0.00 0.00 0.00 1009.9
20260831200050 85 355 5.0 21.0 0.00 0.00 0.00 1010.0
20260831195527 85 74 6.0 25.0 0.00 0.00 0.00 1010.2
20260831195031 85 64 6.0 25.0 0.00 0.00 0.00 1010.2
20260831194555 84 315 6.0 25.0 0.00 0.00 0.00 1010.3
20260831194026 84 101 6.0 17.0 0.00 0.00 0.00 1010.5
20260831193527 84 311 6.0 21.0 0.00 0.00 0.00 1010.5
20260831193057 83 334 5.0 21.0 0.00 0.00 0.00 1010.6
20260831192526 84 145 5.0 21.0 0.00 0.00 0.00 1010.7
20260831192025 84 114 4.0 19.0 0.00 0.00 0.00 1010.7
20260831191551 83 153 5.0 15.0 0.00 0.00 0.00 1010.7
20260831191027 82 146 5.0 16.0 0.00 0.00 0.00 1010.8
20260831190524 82 280 6.0 19.0 0.00 0.00 0.00 1010.8
20260831190050 83 355 5.0 19.0 0.00 0.00 0.00 1010.9
20260831185525 83 9 6.0 19.0 0.00 0.00 0.00 1011.1
20260831185026 82 319 4.0 18.0 0.00 0.00 0.00 1011.1
20260831184551 80 110 5.0 16.0 0.00 0.00 0.00 1011.1
20260831184025 81 255 4.0 16.0 0.00 0.00 0.00 1011.0
20260831183528 79 158 5.0 20.0 0.00 0.00 0.00 1011.2
20260831183048 79 121 5.0 20.0 0.00 0.00 0.00 1011.2
20260831182525 79 239 4.0 15.0 0.00 0.00 0.00 1011.2
20260831182029 79 243 5.0 16.0 0.00 0.00 0.00 1011.3
20260831181548 79 290 6.0 17.0 0.00 0.00 0.00 1011.3
20260831181029 79 101 5.0 17.0 0.00 0.00 0.00 1011.3
20260831180531 79 277 6.0 16.0 0.00 0.00 0.00 1011.5
20260831180059 79 315 5.0 19.0 0.00 0.00 0.00 1011.5
20260831175529 78 118 5.0 21.0 0.00 0.00 0.00 1011.7
20260831175029 77 106 6.0 21.0 0.00 0.00 0.00 1011.7
20260831174550 76 290 7.0 18.0 0.00 0.00 0.00 1011.8
20260831174027 77 227 6.0 20.0 0.00 0.00 0.00 1011.5
20260831173528 77 115 6.0 20.0 0.00 0.00 0.00 1011.5
20260831173049 77 9 6.0 23.0 0.00 0.00 0.00 1011.5
20260831172529 76 109 8.0 23.0 0.00 0.00 0.00 1011.5
20260831172031 76 77 6.0 20.0 0.00 0.00 0.00 1011.6
20260831171555 75 143 7.0 20.0 0.00 0.00 0.00 1011.7
20260831171029 75 307 6.0 21.0 0.00 0.00 0.00 1011.6
20260831170529 74 290 7.0 21.0 0.00 0.00 0.00 1011.7
20260831170050 74 103 8.0 19.0 0.00 0.00 0.00 1011.8
20260831165527 74 99 7.0 17.0 0.00 0.00 0.00 1011.8
20260831165027 74 90 6.0 17.0 0.00 0.00 0.00 1011.8
20260831164549 73 5 6.0 21.0 0.00 0.00 0.00 1011.9
20260831164027 73 62 6.0 21.0 0.00 0.00 0.00 1011.7
20260831163530 72 69 6.0 21.0 0.00 0.00 0.00 1011.9
20260831163055 72 115 6.0 20.0 0.00 0.00 0.00 1012.0
20260831162532 72 78 6.0 20.0 0.00 0.00 0.00 1012.1
20260831162027 71 169 5.0 21.0 0.00 0.00 0.00 1012.1
20260831161551 69 108 7.0 21.0 0.00 0.00 0.00 1012.3
20260831161027 70 78 8.0 19.0 0.00 0.00 0.00 1012.3
20260831160527 69 72 9.0 19.0 0.00 0.00 0.00 1012.4
20260831160047 70 78 5.0 13.0 0.00 0.00 0.00 1012.5
20260831155527 69 72 5.0 18.0 0.00 0.00 0.00 1012.5
20260831155035 68 119 9.0 19.0 0.00 0.00 0.00 1012.7
20260831154624 68 106 6.0 19.0 0.00 0.00 0.00 1012.6
20260831154028 67 110 9.0 19.0 0.00 0.00 0.00 1012.7
20260831153527 66 100 8.0 27.0 0.00 0.00 0.00 1012.6
20260831153057 64 68 9.0 27.0 0.00 0.00 0.00 1012.5
20260831152529 62 108 9.0 22.0 0.00 0.00 0.00 1012.5
20260831152030 61 46 8.0 22.0 0.00 0.00 0.00 1012.7
20260831151606 60 183 8.0 22.0 0.00 0.00 0.00 1012.7
20260831151031 60 43 4.0 19.0 0.00 0.00 0.00 1012.8
20260831150530 60 113 6.0 19.0 0.00 0.00 0.00 1012.8
20260831150049 59 124 7.0 22.0 0.00 0.00 0.00 1012.7
20260831145525 59 78 12.0 22.0 0.00 0.00 0.00 1012.7
20260831145030 59 80 9.0 21.0 0.00 0.00 0.00 1012.8
20260831144556 58 55 11.0 23.0 0.00 0.00 0.00 1012.8
20260831144028 58 149 12.0 23.0 0.00 0.00 0.00 1012.9
20260831143527 58 3 8.0 18.0 0.00 0.00 0.00 1012.9
20260831143105 58 99 8.0 20.0 0.00 0.00 0.00 1012.9
20260831142525 58 101 8.0 20.0 0.00 0.00 0.00 1012.8
20260831142029 58 109 9.0 20.0 0.00 0.00 0.00 1012.8
20260831141548 58 59 11.0 20.0 0.00 0.00 0.00 1013.1
20260831141026 57 101 8.0 20.0 0.00 0.00 0.00 1013.1
20260831140525 57 101 10.0 21.0 0.00 0.00 0.00 1012.9
20260831140048 57 60 10.0 21.0 0.00 0.00 0.00 1013.0
20260831135526 57 155 7.0 20.0 0.00 0.00 0.00 1012.9
20260831135025 57 47 6.0 22.0 0.00 0.00 0.00 1013.0
20260831134601 57 141 11.0 22.0 0.00 0.00 0.00 1013.0
20260831134024 57 76 7.0 18.0 0.00 0.00 0.00 1013.0
20260831133524 57 112 7.0 18.0 0.00 0.00 0.00 1013.0
20260831133056 57 341 7.0 17.0 0.00 0.00 0.00 1012.9
20260831132528 57 105 8.0 19.0 0.00 0.00 0.00 1013.1
20260831132032 57 108 9.0 19.0 0.00 0.00 0.00 1013.1
20260831131605 56 67 5.0 16.0 0.00 0.00 0.00 1013.1
20260831131024 56 114 9.0 16.0 0.00 0.00 0.00 1013.1
20260831130527 56 128 7.0 16.0 0.00 0.00 0.00 1013.1
20260831130106 56 103 7.0 20.0 0.00 0.00 0.00 1013.2
20260831125527 57 121 9.0 20.0 0.00 0.00 0.00 1013.3
20260831125028 57 103 9.0 23.0 0.00 0.00 0.00 1013.3
20260831124601 57 76 9.0 23.0 0.00 0.00 0.00 1013.3
20260831124025 57 65 9.0 18.0 0.00 0.00 0.00 1013.3
20260831123525 57 74 8.0 16.0 0.00 0.00 0.00 1013.5
20260831123057 56 268 8.0 16.0 0.00 0.00 0.00 1013.3
20260831122529 56 134 4.0 15.0 0.00 0.00 0.00 1013.5
20260831122027 57 108 8.0 16.0 0.00 0.00 0.00 1013.5
20260831121551 57 105 7.0 18.0 0.00 0.00 0.00 1013.5
20260831121032 57 99 6.0 20.0 0.00 0.00 0.00 1013.6
20260831120527 57 76 8.0 20.0 0.00 0.00 0.00 1013.5
20260831120055 57 109 6.0 17.0 0.00 0.00 0.00 1013.5
20260831115529 57 3 7.0 15.0 0.00 0.00 0.00 1013.5
20260831115028 57 299 6.0 15.0 0.00 0.00 0.00 1013.7
20260831114559 56 111 3.0 12.0 0.00 0.00 0.00 1013.6
20260831114025 56 106 4.0 12.0 0.00 0.00 0.00 1013.8
20260831113525 57 111 8.0 13.0 0.00 0.00 0.00 1013.7
20260831113051 57 105 7.0 13.0 0.00 0.00 0.00 1013.7
20260831112527 57 103 6.0 12.0 0.00 0.00 0.00 1013.8
20260831112029 57 112 7.0 12.0 0.00 0.00 0.00 1013.8
20260831111545 57 76 5.0 12.0 0.00 0.00 0.00 1013.9
20260831111032 57 101 7.0 12.0 0.00 0.00 0.00 1014.0
20260831110531 57 11 7.0 12.0 0.00 0.00 0.00 1014.0
20260831110047 57 108 6.0 13.0 0.00 0.00 0.00 1014.2
20260831105530 57 68 5.0 13.0 0.00 0.00 0.00 1013.9
20260831105026 57 78 7.0 12.0 0.00 0.00 0.00 1014.0
20260831104555 57 140 6.0 14.0 0.00 0.00 0.00 1014.0
20260831104025 57 99 7.0 14.0 0.00 0.00 0.00 1014.0
20260831103525 57 111 5.0 13.0 0.00 0.00 0.00 1014.1
20260831103054 57 110 6.0 11.0 0.00 0.00 0.00 1014.0
20260831102529 57 106 7.0 11.0 0.00 0.00 0.00 1014.2
20260831102028 57 116 5.0 12.0 0.00 0.00 0.00 1014.1
20260831101558 58 123 4.0 12.0 0.00 0.00 0.00 1014.2
20260831101028 58 136 7.0 12.0 0.00 0.00 0.00 1014.2
20260831100524 58 109 4.0 9.0 0.00 0.00 0.00 1014.2
20260831095524 58 10 3.0 9.0 0.00 0.00 0.00 1014.4
20260831095031 58 112 4.0 9.0 0.00 0.00 0.00 1014.4
20260831094610 58 117 4.0 9.0 0.00 0.00 0.00 1014.4
20260831094029 58 116 4.0 11.0 0.00 0.00 0.00 1014.4
20260831093523 58 111 5.0 11.0 0.00 0.00 0.00 1014.4
20260831093055 58 71 5.0 11.0 0.00 0.00 0.00 1014.6
20260831092529 59 31 4.0 12.0 0.00 0.00 0.00 1014.6
20260831092027 59 132 6.0 12.0 0.00 0.00 0.00 1014.7
20260831091548 59 115 6.0 14.0 0.00 0.00 0.00 1014.7
20260831091024 59 122 7.0 14.0 0.00 0.00 0.00 1014.8
20260831090527 59 74 7.0 13.0 0.00 0.00 0.00 1014.8
20260831090053 59 111 9.0 14.0 0.00 0.00 0.00 1014.9
20260831085528 59 109 9.0 14.0 0.00 0.00 0.00 1015.0
20260831085028 59 105 9.0 13.0 0.00 0.00 0.00 1015.1
20260831084549 59 113 8.0 13.0 0.00 0.00 0.00 1015.0
20260831084028 60 112 6.0 13.0 0.00 0.00 0.00 1015.1
20260831083525 59 130 10.0 13.0 0.00 0.00 0.00 1015.0
20260831083046 59 120 9.0 13.0 0.00 0.00 0.00 1015.1
20260831082530 59 114 11.0 13.0 0.00 0.00 0.00 1015.1
20260831082024 59 118 11.0 13.0 0.00 0.00 0.00 1015.1
20260831081551 59 134 9.0 13.0 0.00 0.00 0.00 1015.3
20260831081025 59 116 10.0 12.0 0.00 0.00 0.00 1015.2
20260831080528 59 111 9.0 12.0 0.00 0.00 0.00 1015.4
20260831080050 60 113 5.0 11.0 0.00 0.00 0.00 1015.4
20260831075529 60 112 9.0 11.0 0.00 0.00 0.00 1015.5